Regional Weather Roundup
Issued by NWS Newport/Morehead, NC

Current Version | Previous Version | Graphics & Text | Print | Product List | Glossary Off
Versions: 1 2 3 4 5 6 7 8 9 10 11 12 13 14 15 16 17 18 19 20 21 22 23 24 25 26 27 28 29 30 31 32 33 34 35 36 37 38 39 40 41 42 43 44 45 46 47 48 49 50

348
ASUS42 KMHX 221514
RWRMHX
WEATHER ROUNDUP FOR EASTERN NORTH CAROLINA
NATIONAL WEATHER SERVICE NEWPORT/MOREHEAD CITY NC
1100 AM EDT TUE AUG 22 2017

NOTE: "FAIR" INDICATES FEW OR NO CLOUDS BELOW 12,000 FEET
WITH NO SIGNIFICANT WEATHER AND/OR OBSTRUCTIONS TO VISIBILITY

NCZ015>017-031-032-045>047-102-103-221600-
NORTH COAST

CITY           SKY/WX    TMP DP  RH WIND       PRES   REMARKS
EDENTON        SUNNY     84  77  79 CALM      30.12S
ELIZABETH CITY MOSUNNY   86  76  71 SW9       30.10F
KITTY HAWK     SUNNY     83  73  70 CALM      30.10S
MANTEO         SUNNY     83  74  75 S5        30.11S

$$

NCZ045>047-081-094-103-104-221600-
CENTRAL COAST

CITY           SKY/WX    TMP DP  RH WIND       PRES   REMARKS
FRISCO         SUNNY     86  77  74 S6        30.12S

$$

NCZ095-097-098-100-101-221600-
SOUTHERN COAST

CITY           SKY/WX    TMP DP  RH WIND       PRES   REMARKS
BEAUFORT       MOSUNNY   85  77  77 S9        30.12S
CEDAR ISLAND   NOT AVBL
JACKSONVILLE   LGT RAIN  82  77  84 N3        30.10F
PINEY ISLAND   LGT RAIN N/A N/A N/A E6        30.11F
WILMINGTON     CLOUDY    85  77  77 S8        30.11S


$$

NCZ011>013-027>030-043-044-078>080-089-090>093-098-221600-
COASTAL PLAIN

CITY           SKY/WX    TMP DP  RH WIND       PRES   REMARKS
AHOSKIE          N/A     82  76  83 S3        30.11S
CLINTON        PTSUNNY   83  77  81 W3        30.12S
ELIZABETHTOWN  NOT AVBL
GOLDSBORO      PTSUNNY   84  80  88 SW6       30.11S
GREENVILLE     MOSUNNY   82  73  74 W6        30.13S
HAVELOCK       LGT RAIN  81  75  82 CALM      30.13R
KENANSVILLE    MOSUNNY   84  75  74 E5        30.12S
KINSTON        PTSUNNY   84  75  74 SW5       30.12F
NEW BERN       PTSUNNY   87  75  67 CALM      30.12F
RICHLANDS      PTSUNNY   87  76  69 S7        30.11F
ROCKY MOUNT    MOSUNNY   83  76  79 SW5       30.11F
WASHINGTON     MOSUNNY   85  75  72 W5        30.12S
WHITEVILLE     CLOUDY    84  74  71 SE3       30.11S

$$

AMZ130-135-150-152-154-156-158-170-250-252-270-ANZ085-086-088-633-658-670-221600-
MARINE OBSERVATIONS

STATION/POSITION TIME  TEMP    WIND        PRES    WAVE   SWELL
                       AIR SEA DIR/SP/G            HT/PER HT/PER
                 (UTC) (F)     (DEG/KT/KT) (MB)    (FT/S) (FT/S)
CHESAPEAKE LIGHT NOT AVBL
64 E VA BEACH    1450   79 80  200/  8/  8 1020.0    2/11   2/11
DUCK             1448   82 76  250/  5/  8 1019.2
2 E DUCK         1430      81                N/A     2/12   2/12
OREGON INLET     1436   81 82  190/  4/  5 1019.7
13E OREGON INLT  1448      81                N/A     2/12   2/12
HATTERAS CG      1448   84 82  190/  4/  7 1020.0
DIAMOND BUOY     1450   82 87  200/  8/ 10 1019.8    3/ 9   3/ 9
CAPE LOOKOUT     1500   83     160/  6/  7 1019.6
BEAUFORT LAB     1448   83 81  180/  7/  9 1019.4
30 SE NEW RVR IN 1408   83 83  180/  6/ 10 1020.0
30 SE NEW RVR IN 1443      84                N/A     4/10   2/12
27 SE WRIGHTSVLE 1408   80 83   80/  6/ 10 1020.2
5 SE WRIGHTSVLE  1408   79 83  130/  8/ 12 1019.6
225 S CAPE HAT   1450   82 84  100/  6/  8 1020.6    5/10   5/10
41 SE CHARLESTON 1450   83 85  230/  6/  6 1019.6    3/ 9   3/ 9

$$




USA.gov is the U.S. government's official web portal to all federal, state and local government web resources and services.